Regional Weather Roundup
Issued by NWS

Home | Current Version | Previous Version | Text Only | Print | Product List | Glossary Off
Versions: 1 2 3 4 5 6 7 8 9 10 11 12 13 14 15 16 17 18 19 20 21 22 23 24 25 26 27 28 29 30 31 32 33 34 35 36 37 38 39 40 41 42 43 44 45 46 47 48 49 50

000
ASUS43 KDMX 102001
RWRIA

WEATHER ROUNDUP FOR IOWA
NATIONAL WEATHER SERVICE DES MOINES IA
200 PM CST SAT DEC 10 2016

NOTE: "FAIR" INDICATES FEW OR NO CLOUDS BELOW 12,000 FEET WITH NO
SIGNIFICANT WEATHER AND/OR OBSTRUCTIONS TO VISIBILITY.

* - THESE STATIONS ARE NOT NWS STATIONS...THUS NOT UNDER NWS
QUALITY CONTROL.  THEY ALSO DO NOT REPORT WEATHER SUCH
AS PRECIPITATION OR FOG.

IAZ001>003-012>014-020>022-031>034-043>046-102100-
   NORTHWEST IOWA

CITY           SKY/WX    TMP DP  RH WIND       PRES   REMARKS
CARROLL *      CLOUDY    23  21  93 E10       30.22F WCI  12
CHEROKEE *     CLOUDY    21  18  90 E7        30.21F WCI  12
DENISON *      CLOUDY    23  19  86 E9        30.18F WCI  13
LE MARS *      CLOUDY    23  18  80 SE12G18   30.19F WCI  12
ORANGE CITY *  CLOUDY    18  16  93 E12       30.17F WCI   5
SHELDON *      CLOUDY    16  14  93 E14       30.18F WCI   1
SIOUX CITY     CLOUDY    27  20  75 SE18      30.17F WCI  14
SPENCER        LGT SNOW  16  12  84 E6        30.23F FOG     WCI   7
STORM LAKE *   CLOUDY    19  18  93 E13       30.21F WCI   7
$$

IAZ055>058-069>071-079>083-090>094-102100-
   SOUTHWEST IOWA

CITY           SKY/WX    TMP DP  RH WIND       PRES   REMARKS
ATLANTIC *     CLOUDY    28  18  64 SE9G16    30.19F WCI  20
AUDUBON *      CLOUDY    25  19  80 SE9       30.20F WCI  15
CLARINDA *     CLOUDY    32  16  51 S10G16    30.20F WCI  24
COUNCIL BLFS * CLOUDY    28  16  59 S12       30.16F WCI  18
CRESTON *      CLOUDY    28  16  59 SE15      30.20F WCI  17
HARLAN  *      CLOUDY    25  21  86 SE7       30.22F WCI  17
LAMONI         CLOUDY    30  14  51 S10       30.23F WCI  21
RED OAK *      CLOUDY    30  16  55 SE12      30.17F WCI  21
SHENANDOAH *   CLOUDY    32  16  51 SE12      30.18F WCI  23
$$

IAZ047>049-059>061-072>074-084-102100-
   CENTRAL IOWA

CITY           SKY/WX    TMP DP  RH WIND       PRES   REMARKS
AMES           LGT SNOW  23  21  92 SE10      30.28F FOG     WCI  12
ANKENY *       CLOUDY    23  19  86 SE9G16    30.29F WCI  13
BOONE *        CLOUDY    23  19  86 SE13      30.25F WCI  11
CHARITON *     CLOUDY    27  19  74 SE7G17    30.26F WCI  19
DES MOINES     CLOUDY    25  20  81 SE9       30.27F WCI  15
GRINNELL*      LGT SNOW  23  20  89 SE14      30.30F WCI  10
KNOXVILLE *    CLOUDY    25  19  80 SE10G17   30.26F WCI  15
MARSHALLTOWN   LGT SNOW  22  19  89 SE10      30.29F FOG     WCI  11
NEWTON *       PTSUNNY   23  19  86 SE12G17   30.28F WCI  12
PELLA *        CLOUDY    24  20  84 SE14      30.30F WCI  12
PERRY *        CLOUDY    24  22  91 SE8       30.25F WCI  16
$$

IAZ004>006-015-016-023>025-035-036-102100-
   NORTH CENTRAL IOWA

CITY           SKY/WX    TMP DP  RH WIND       PRES   REMARKS
ALGONA *       LGT SNOW  18  16  93 SE10      30.25F WCI   6
CLARION *      CLOUDY    19  18  93 E8        30.29F FOG     WCI   9
ESTHERVILLE    LGT SNOW  12   9  87 E10       30.25F FOG     WCI  -1
FORT DODGE *   CLOUDY    21  16  79 E10       30.27F WCI  10
MASON CITY     LGT SNOW  15  12  88 SE8       30.31F FOG     WCI   4
WEBSTER CITY * LGT SNOW  21  21 100 E9        30.26F WCI  11
IOWA FALLS *   LGT SNOW  22  19  88 E7        30.30F WCI  14
$$

IAZ007>011-017>019-026>030-037>042-050>054-066-102100-
   NORTHEAST IOWA

CITY           SKY/WX    TMP DP  RH WIND       PRES   REMARKS
CEDAR RAPIDS   LGT SNOW  21  20  96 SE8       30.34F VSB 1   WCI  11
CHARLES CITY * LGT SNOW  16  12  86 E7        30.33F WCI   6
CLINTON *      FLURRIES  24  18  77 S10       30.40F WCI  14
DECORAH *      LGT SNOW  14  10  85 SE3       30.34S VSB 1
DUBUQUE        LGT SNOW  20  16  84 S8        30.35F FOG     WCI  10
MONTICELLO *   LGT SNOW  21  18  86 SE8       30.36F WCI  12
OELWEIN *      LGT SNOW  19  18  93 SE10      30.34F VSB 1   WCI   8
WATERLOO       SNOW      20  16  84 SE9       30.33F VSB 1/2 WCI   9
$$

IAZ064-065-067-068-078-102100-
   EAST CENTRAL IOWA

CITY           SKY/WX    TMP DP  RH WIND       PRES   REMARKS
DAVENPORT      LGT SNOW  24  16  71 S10       30.39F WCI  14
IOWA CITY      LGT SNOW  23  20  88 SE6       30.38F VSB 3/4 WCI  16
MUSCATINE *    LGT SNOW  25  21  86 SE6       30.39F VSB 3/4 WCI  18
QUAD CITIES    LGT SNOW  25  16  68 S7        30.40F WCI  17
$$

IAZ062-063-075>077-085>089-095>099-102100-
   SOUTHEAST IOWA

CITY           SKY/WX    TMP DP  RH WIND       PRES   REMARKS
BURLINGTON     LGT SNOW  24  19  81 SE9       30.38F WCI  14
FAIRFIELD *    CLOUDY    25  18  74 SE14      30.33F HAZE    WCI  13
FORT MADISON * CLOUDY    27  18  69 E10       30.37F WCI  17
KEOKUK *       CLOUDY    28  12  50 SE8G15    30.36F WCI  20
OSKALOOSA *    FLURRIES  23  20  88 SE16      30.32F WCI  10
CENTERVILLE *  CLOUDY    28  16  59 SE12      30.29F WCI  18
OTTUMWA        CLOUDY    24  18  77 SE12      30.32F WCI  13
WASHINGTON *   LGT SNOW  25  23  93 S10       30.37F VSB 1   WCI  15
$$

ABBREVIATIONS USED IN REMARKS
   TC - TEMPERATURES IN CELSIUS
  WCI - WIND CHILL INDEX
   HX - HEAT INDEX
  VSB - VISIBILITY
$$





USA.gov is the U.S. government's official web portal to all federal, state and local government web resources and services.